STARLINK-11600, 63114

Orbit data source: Space-Track

STARLINK-11600, 63114 is a payload satellite owned by SpaceX/Seattle (US) in LEO that was launched on Thu, 27 Feb 2025 UTC via an FALCON 9 launch vehicle from the Air Force Eastern Test Range (AFETR). Payload-class satellites include a variety of spacecraft equipped with specific instruments for various scientific and technological missions. These include communications satellites like Starlink; space stations such as the ISS; scientific satellites like the Hubble; Earth observation satellites from companies like Planet Labs, Umbra, and HawkEye 360; GPS; miniature CubeSats for education and research; and military/defense satellites.

Loading next visibility...
Identifier
63114, 2025-039L
Orbit
LEO
Country
Flag of USUS
Related business
Manufacturer
SpaceX/Seattle
Mission
Operational Commercial Communications
Bus & Motor
STARLINK V2MD, Unknown motor
Mass
960 kg wet, ~910 kg dry
Launch date (UTC)
2025-02-27 (8 months ago)
Launch vehicle
FALCON 9
Launch site
Air Force Eastern Test Range (AFETR)
Object type
Payload
Rocket body
Debris
Shape & HBR
Box + 2 Pan, 18.1 m
Radar Cross Section
36.964 m², Large (>1 m²)

Expand to show TLE details & history
Last TLE update: 9 hours ago

TLE from 9 hours ago
0 STARLINK-11600
1 63114U 25039L   25299.37923137  .00322515  00000-0  24146-2 0  9993
2 63114  42.9997 326.2672 0000606 206.1689 153.9148 15.70898840 38494
Epoch: 2025-10-26T09:06Z
TLE epoch observation values (Epoch: 2025-10-26T09:06:05.590Z)
Latitude
-0.00002°
Longitude
154.74761°
Altitude
356.464 km
Speed
7.697 km/s
True Right ascension
21h 45m 04s
True Declination
0° 00' 00"
Sunlit
Object was in full shadow at epoch
Visualization orbit readout
Latitude
Unknown
Longitude
Unknown
Altitude
Unknown
Speed
Unknown
Apparent Right ascension
Unknown
Apparent Declination
Unknown
Sunlit
N/A
Visualization observer readout
Local Sidereal Time
13:42:02
Azimuth
Unknown
Elevation
Unknown
Doppler factor
Unknown
Orbital elements
Apogee altitude
358.717 km
Perigee altitude
357.9 km
Semi-major axis
6,736.446 km
Eccentricity
0.00006
Inclination
42.9997°
RAAN
326.2672°
Arg. of periapsis
206.1689°
True anomaly
153.91785°
Mean anomaly
153.9148°
Eccentric anomaly
153.91633°
Mean motion
3.92552 °/min
Orbital period
91.71 mins
BSTAR
0.0024146
Loading maneuver chart data...
Computing Atmospheric mass density...
Loading historical data...
Loading historical data...
Loading historical data...
Loading historical data...
Loading historical data...
Loading historical data...
Loading historical data...

Documentation

Showing up to 5 results
|